Location: Boda
(47.1872°N, 9.5454°E)
Time: 17:58:22
(UTC+00:00)

Cosmos 1315 Rocket - Pass Details

Date: 14 May 2021
Orbit: 529 x 567 km, 81.2° (Epoch: 15 June)

Event Time Altitude Azimuth Distance (km) Brightness Sun altitude
Rises 00:41:03 0° 350° (N) 2,708 7.3 -21.6°
Reaches altitude 10° 00:43:13 10° 352° (N) 1,817 6.3 -21.4°
Maximum altitude 00:47:12 73° 78° (ENE) 577 2.9 -21.2°
Enters shadow 00:47:59 54° 142° (SE) 668 3.0 -21.1°
